Location: Arpaise
(41.0333°N, 14.7333°E)
Time: 21:56:16
(UTC+00:00)

Cosmos 846 Rocket - Pass Details

Date: 22 January 2021
Orbit: 948 x 991 km, 82.9° (Epoch: 06 March)

Event Time Altitude Azimuth Distance (km) Brightness Sun altitude
Rises 17:32:03 0° 163° (SSE) 3,669 8.5 -16.2°
Reaches altitude 10° 17:34:42 10° 156° (SSE) 2,719 7.7 -16.7°
Maximum altitude 17:40:26 41° 89° (E) 1,385 5.8 -17.7°
Drops below altitude 10° 17:46:09 10° 22° (NNE) 2,708 7.5 -18.8°
Sets 17:48:47 0° 15° (NNE) 3,652 8.3 -19.3°
